ETD4811 OBBI-OMRK

Flight info

Callsign ETD4811
Flight time 0h 52m
Altitude 25000
Route BHR075/12L DCT BHR N697 SODAK P559 KIVUS L305 EMOTA R784 TOVIV DCT
Aircraft A320/M-VGDW/C

Departure

Time 2026-04-27 16:55
Airport Bahrain International Airport (OBBI)

Arrival

Time 2026-04-27 17:47
Airport Ras Al Khaimah International Airport (OMRK)
Time Latitude Longitude Altitude Speed Heading
2026-04-27 16:09 26.26498 50.63614 15 ft 0 kts 212°
2026-04-27 16:33 26.26502 50.63618 14 ft 2 kts 213°
2026-04-27 16:33 26.26519 50.63629 15 ft 3 kts 213°
2026-04-27 16:33 26.26536 50.63642 15 ft 3 kts 213°
2026-04-27 16:33 26.26551 50.63652 16 ft 3 kts 216°
2026-04-27 16:34 26.26564 50.63667 16 ft 3 kts 246°
2026-04-27 16:34 26.26568 50.63687 18 ft 3 kts 280°
2026-04-27 16:34 26.26565 50.63701 15 ft 3 kts 295°
2026-04-27 16:34 26.26559 50.63713 17 ft 1 kts 300°
2026-04-27 16:35 26.26558 50.63716 14 ft 0 kts 300°
2026-04-27 16:39 26.26560 50.63711 16 ft 4 kts 300°
2026-04-27 16:39 26.26581 50.63672 14 ft 7 kts 300°
2026-04-27 16:39 26.26615 50.63617 15 ft 10 kts 311°
2026-04-27 16:39 26.26665 50.63549 15 ft 11 kts 302°
2026-04-27 16:40 26.26710 50.63471 14 ft 12 kts 303°
2026-04-27 16:40 26.26745 50.63396 16 ft 5 kts 301°
2026-04-27 16:40 26.26776 50.63373 14 ft 6 kts 346°
2026-04-27 16:40 26.26833 50.63389 13 ft 12 kts 33°
2026-04-27 16:41 26.26899 50.63440 13 ft 0 kts 28°
2026-04-27 16:43 26.26902 50.63442 12 ft 3 kts 28°
2026-04-27 16:43 26.26968 50.63511 13 ft 24 kts 75°
2026-04-27 16:43 26.26858 50.63722 14 ft 36 kts 149°
2026-04-27 16:43 26.26747 50.63760 14 ft 0 kts 166°
2026-04-27 16:44 26.26729 50.63764 14 ft 8 kts 168°
2026-04-27 16:44 26.26659 50.63782 14 ft 13 kts 170°
2026-04-27 16:45 26.26570 50.63735 15 ft 15 kts 243°
2026-04-27 16:45 26.26574 50.63684 16 ft 0 kts 299°
2026-04-27 16:45 26.26574 50.63683 16 ft 0 kts 300°
2026-04-27 16:46 26.26590 50.63654 15 ft 10 kts 301°
2026-04-27 16:46 26.26648 50.63553 16 ft 21 kts 303°
2026-04-27 16:47 26.26736 50.63406 14 ft 17 kts 309°
2026-04-27 16:47 26.26838 50.63378 14 ft 16 kts 338°
2026-04-27 16:47 26.26934 50.63270 12 ft 25 kts 301°
2026-04-27 16:47 26.27041 50.63082 15 ft 30 kts 303°
2026-04-27 16:48 26.27160 50.62888 15 ft 29 kts 308°
2026-04-27 16:48 26.27271 50.62698 15 ft 30 kts 303°
2026-04-27 16:48 26.27385 50.62503 15 ft 29 kts 303°
2026-04-27 16:49 26.27595 50.62140 14 ft 28 kts 304°
2026-04-27 16:49 26.27700 50.61964 16 ft 23 kts 303°
2026-04-27 16:49 26.27789 50.61809 15 ft 25 kts 302°
2026-04-27 16:49 26.27872 50.61678 15 ft 18 kts 316°
2026-04-27 16:50 26.27923 50.61652 15 ft 0 kts 350°
2026-04-27 16:54 26.27981 50.61663 16 ft 20 kts 21°
2026-04-27 16:54 26.27987 50.61803 17 ft 28 kts 122°
2026-04-27 16:54 26.27851 50.62038 16 ft 53 kts 122°
2026-04-27 16:54 26.27492 50.62661 15 ft 134 kts 123°
2026-04-27 16:55 26.26881 50.63730 127 ft 183 kts 122°
2026-04-27 16:55 26.26191 50.64936 923 ft 182 kts 120°
2026-04-27 16:55 26.25793 50.66304 1428 ft 196 kts 90°
2026-04-27 16:55 26.25935 50.67900 1607 ft 218 kts 79°
2026-04-27 16:56 26.26226 50.69643 1827 ft 241 kts 78°
2026-04-27 16:56 26.26568 50.71561 2171 ft 262 kts 78°
2026-04-27 16:56 26.26928 50.73582 2831 ft 270 kts 78°
2026-04-27 16:56 26.27300 50.75651 3568 ft 276 kts 78°
2026-04-27 16:57 26.27690 50.77773 3889 ft 282 kts 78°
2026-04-27 16:57 26.28091 50.79916 3984 ft 282 kts 78°
2026-04-27 16:57 26.28496 50.82055 4005 ft 282 kts 78°
2026-04-27 16:57 26.28897 50.84170 4005 ft 282 kts 78°
2026-04-27 16:58 26.29302 50.86313 4006 ft 282 kts 78°
2026-04-27 16:58 26.29729 50.88450 4008 ft 282 kts 71°
2026-04-27 16:58 26.30636 50.90369 4010 ft 280 kts 48°
2026-04-27 16:58 26.32128 50.91717 4010 ft 276 kts 24°
2026-04-27 16:59 26.33916 50.92466 4011 ft 275 kts 17°
2026-04-27 16:59 26.35725 50.93152 4010 ft 274 kts 17°
2026-04-27 16:59 26.37535 50.93839 4011 ft 275 kts 17°
2026-04-27 16:59 26.39341 50.94526 4010 ft 274 kts 17°
2026-04-27 17:00 26.42371 50.95676 4766 ft 279 kts 16°
2026-04-27 17:00 26.44829 50.96610 5812 ft 284 kts 17°
2026-04-27 17:00 26.46705 50.97327 6587 ft 287 kts 16°
2026-04-27 17:01 26.48605 50.98054 7320 ft 290 kts 16°
2026-04-27 17:01 26.50529 50.98790 8048 ft 294 kts 15°
2026-04-27 17:01 26.52476 50.99536 8778 ft 298 kts 15°
2026-04-27 17:01 26.54451 51.00291 9509 ft 302 kts 15°
2026-04-27 17:02 26.56465 51.01060 10038 ft 314 kts 15°
2026-04-27 17:02 26.58609 51.01872 10186 ft 337 kts 15°
2026-04-27 17:02 26.60900 51.02742 10344 ft 358 kts 15°
2026-04-27 17:02 26.63292 51.03653 10789 ft 367 kts 15°
2026-04-27 17:03 26.65717 51.04584 11402 ft 370 kts 15°
2026-04-27 17:03 26.68164 51.05524 12044 ft 373 kts 15°
2026-04-27 17:03 26.70620 51.06483 12700 ft 376 kts 18°
2026-04-27 17:03 26.72895 51.07975 13339 ft 386 kts 38°
2026-04-27 17:04 26.74606 51.10321 13921 ft 396 kts 60°
2026-04-27 17:04 26.75456 51.13262 14465 ft 403 kts 83°
2026-04-27 17:04 26.75277 51.16397 14987 ft 408 kts 105°
2026-04-27 17:04 26.74371 51.19411 15511 ft 411 kts 110°
2026-04-27 17:05 26.73397 51.22430 16029 ft 415 kts 111°
2026-04-27 17:05 26.72403 51.25476 16553 ft 419 kts 111°
2026-04-27 17:05 26.71401 51.28553 17101 ft 422 kts 111°
2026-04-27 17:05 26.70736 51.30604 17467 ft 425 kts 111°
2026-04-27 17:06 26.69388 51.34785 18203 ft 430 kts 111°
2026-04-27 17:06 26.68370 51.37943 18714 ft 433 kts 111°
2026-04-27 17:06 26.67356 51.41086 19206 ft 436 kts 112°
2026-04-27 17:06 26.66308 51.44334 19702 ft 441 kts 112°
2026-04-27 17:07 26.65264 51.47576 20184 ft 445 kts 112°
2026-04-27 17:07 26.64229 51.50799 20648 ft 449 kts 112°
2026-04-27 17:07 26.63167 51.54103 21101 ft 453 kts 112°
2026-04-27 17:07 26.62098 51.57425 21526 ft 457 kts 112°
2026-04-27 17:08 26.61015 51.60784 21924 ft 461 kts 113°
2026-04-27 17:08 26.59925 51.64168 22316 ft 465 kts 113°
2026-04-27 17:08 26.58825 51.67579 22702 ft 469 kts 113°
2026-04-27 17:08 26.57717 51.71020 23080 ft 473 kts 113°
2026-04-27 17:09 26.56599 51.74489 23448 ft 476 kts 114°
2026-04-27 17:09 26.55468 51.77985 23769 ft 480 kts 114°
2026-04-27 17:09 26.54331 51.81494 24093 ft 482 kts 114°
2026-04-27 17:09 26.53183 51.85024 24412 ft 485 kts 114°
2026-04-27 17:10 26.52029 51.88577 24713 ft 488 kts 114°
2026-04-27 17:10 26.50864 51.92141 24817 ft 491 kts 114°
2026-04-27 17:10 26.49670 51.95743 24830 ft 498 kts 114°
2026-04-27 17:10 26.48467 51.99338 24832 ft 501 kts 114°
2026-04-27 17:11 26.47244 52.02981 24833 ft 502 kts 114°
2026-04-27 17:11 26.44803 52.10280 24828 ft 502 kts 114°
2026-04-27 17:11 26.43587 52.13938 24825 ft 502 kts 114°
2026-04-27 17:12 26.41154 52.21244 24826 ft 502 kts 114°
2026-04-27 17:12 26.39929 52.24902 24826 ft 502 kts 114°
2026-04-27 17:12 26.38705 52.28546 24829 ft 502 kts 114°
2026-04-27 17:13 26.37477 52.32189 24819 ft 502 kts 114°
2026-04-27 17:13 26.36253 52.35825 24824 ft 501 kts 114°
2026-04-27 17:13 26.35019 52.39461 24828 ft 500 kts 114°
2026-04-27 17:13 26.33725 52.43053 24831 ft 499 kts 116°
2026-04-27 17:14 26.32366 52.46614 24829 ft 498 kts 117°
2026-04-27 17:14 26.30970 52.50149 24824 ft 498 kts 117°
2026-04-27 17:14 26.29584 52.53627 24827 ft 498 kts 117°
2026-04-27 17:14 26.28185 52.57159 24819 ft 498 kts 117°
2026-04-27 17:15 26.26800 52.60701 24816 ft 499 kts 116°
2026-04-27 17:15 26.25429 52.64248 24815 ft 499 kts 116°
2026-04-27 17:15 26.24066 52.67806 24797 ft 499 kts 116°
2026-04-27 17:15 26.22711 52.71362 24805 ft 499 kts 116°
2026-04-27 17:16 26.21360 52.74923 24815 ft 498 kts 116°
2026-04-27 17:16 26.20009 52.78481 24816 ft 498 kts 116°
2026-04-27 17:16 26.18653 52.82038 24815 ft 498 kts 116°
2026-04-27 17:16 26.17295 52.85580 24815 ft 498 kts 116°
2026-04-27 17:17 26.15931 52.89123 24808 ft 498 kts 116°
2026-04-27 17:17 26.14566 52.92661 24809 ft 498 kts 116°
2026-04-27 17:17 26.13198 52.96205 24808 ft 498 kts 116°
2026-04-27 17:18 26.10485 53.03237 24799 ft 498 kts 116°
2026-04-27 17:18 26.09116 53.06821 24805 ft 497 kts 115°
2026-04-27 17:18 26.07812 53.10330 24817 ft 497 kts 115°
2026-04-27 17:18 26.06514 53.13893 24822 ft 496 kts 114°
2026-04-27 17:19 26.05231 53.17450 24825 ft 496 kts 114°
2026-04-27 17:19 26.03949 53.21007 24825 ft 495 kts 114°
2026-04-27 17:19 26.02657 53.24563 24824 ft 495 kts 115°
2026-04-27 17:19 26.01358 53.28102 24812 ft 495 kts 114°
2026-04-27 17:20 26.00492 53.30446 24808 ft 495 kts 115°
2026-04-27 17:20 25.99178 53.33989 24811 ft 495 kts 115°
2026-04-27 17:20 25.97857 53.37537 24804 ft 495 kts 115°
2026-04-27 17:20 25.96541 53.41067 24804 ft 495 kts 115°
2026-04-27 17:21 25.95226 53.44596 24806 ft 495 kts 115°
2026-04-27 17:21 25.93908 53.48135 24805 ft 495 kts 115°
2026-04-27 17:21 25.92606 53.51671 24804 ft 495 kts 114°
2026-04-27 17:21 25.91349 53.55233 24801 ft 495 kts 113°
2026-04-27 17:22 25.90144 53.58757 24803 ft 495 kts 112°
2026-04-27 17:22 25.88940 53.62341 24803 ft 495 kts 112°
2026-04-27 17:22 25.87738 53.65921 24801 ft 495 kts 112°
2026-04-27 17:22 25.86524 53.69500 24800 ft 495 kts 113°
2026-04-27 17:23 25.85299 53.73073 24799 ft 495 kts 113°
2026-04-27 17:23 25.84064 53.76638 24801 ft 495 kts 113°
2026-04-27 17:23 25.82821 53.80199 24796 ft 494 kts 114°
2026-04-27 17:23 25.81578 53.83753 24814 ft 493 kts 114°
2026-04-27 17:24 25.80342 53.87296 24824 ft 492 kts 114°
2026-04-27 17:24 25.79106 53.90842 24828 ft 491 kts 114°
2026-04-27 17:24 25.77925 53.94397 24824 ft 492 kts 109°
2026-04-27 17:24 25.77187 53.98103 24821 ft 494 kts 98°
2026-04-27 17:25 25.77009 54.01913 24817 ft 495 kts 88°
2026-04-27 17:25 25.77396 54.05708 24808 ft 494 kts 78°
2026-04-27 17:25 25.78322 54.09369 24805 ft 493 kts 69°
2026-04-27 17:25 25.79460 54.12911 24802 ft 493 kts 69°
2026-04-27 17:26 25.80618 54.16540 24793 ft 493 kts 69°
2026-04-27 17:26 25.81760 54.20130 24793 ft 493 kts 69°
2026-04-27 17:26 25.82884 54.23673 24791 ft 493 kts 69°
2026-04-27 17:26 25.84023 54.27267 24786 ft 493 kts 70°
2026-04-27 17:27 25.85161 54.30863 24788 ft 493 kts 70°
2026-04-27 17:27 25.86213 54.34486 24783 ft 494 kts 76°
2026-04-27 17:27 25.86786 54.38245 24780 ft 494 kts 85°
2026-04-27 17:27 25.86818 54.42059 24780 ft 493 kts 95°
2026-04-27 17:28 25.86316 54.45809 24776 ft 490 kts 105°
2026-04-27 17:28 25.85324 54.49416 24777 ft 488 kts 112°
2026-04-27 17:28 25.83072 54.56540 24769 ft 490 kts 111°
2026-04-27 17:29 25.81962 54.60064 24770 ft 490 kts 111°
2026-04-27 17:29 25.80835 54.63637 24761 ft 491 kts 111°
2026-04-27 17:29 25.79704 54.67213 24761 ft 490 kts 111°
2026-04-27 17:29 25.78575 54.70779 24774 ft 490 kts 111°
2026-04-27 17:30 25.77441 54.74350 24774 ft 490 kts 111°
2026-04-27 17:30 25.75175 54.81465 24779 ft 484 kts 111°
2026-04-27 17:30 25.74057 54.84960 24796 ft 479 kts 112°
2026-04-27 17:31 25.72941 54.88434 24792 ft 477 kts 112°
2026-04-27 17:31 25.71842 54.91856 24783 ft 477 kts 112°
2026-04-27 17:31 25.70731 54.95319 24783 ft 477 kts 111°
2026-04-27 17:31 25.69624 54.98787 24552 ft 476 kts 111°
2026-04-27 17:32 25.68522 55.02247 23846 ft 475 kts 112°
2026-04-27 17:32 25.65746 55.08782 22175 ft 460 kts 118°
2026-04-27 17:32 25.64345 55.11941 21087 ft 453 kts 118°
2026-04-27 17:33 25.62964 55.15050 20077 ft 446 kts 118°
2026-04-27 17:33 25.61606 55.18112 19135 ft 439 kts 118°
2026-04-27 17:33 25.60268 55.21128 18248 ft 433 kts 118°
2026-04-27 17:33 25.58949 55.24099 17263 ft 427 kts 118°
2026-04-27 17:34 25.57647 55.27022 16289 ft 419 kts 118°
2026-04-27 17:34 25.56364 55.29893 15303 ft 413 kts 117°
2026-04-27 17:34 25.55252 55.32798 14369 ft 407 kts 108°
2026-04-27 17:34 25.54622 55.35827 13438 ft 400 kts 98°
2026-04-27 17:35 25.54204 55.38846 12408 ft 393 kts 98°
2026-04-27 17:35 25.53794 55.41778 11444 ft 387 kts 97°
2026-04-27 17:35 25.53376 55.44735 10504 ft 380 kts 97°
2026-04-27 17:35 25.52968 55.47600 9610 ft 374 kts 96°
2026-04-27 17:36 25.52572 55.50348 9384 ft 348 kts 96°
2026-04-27 17:36 25.52205 55.52860 9268 ft 323 kts 96°
2026-04-27 17:36 25.51856 55.55257 8895 ft 310 kts 96°
2026-04-27 17:36 25.51522 55.57596 8339 ft 306 kts 96°
2026-04-27 17:37 25.51195 55.59917 7748 ft 303 kts 96°
2026-04-27 17:37 25.50874 55.62213 7178 ft 301 kts 96°
2026-04-27 17:37 25.50554 55.64497 6618 ft 299 kts 96°
2026-04-27 17:37 25.50231 55.66762 6055 ft 297 kts 97°
2026-04-27 17:38 25.49906 55.69011 5466 ft 296 kts 97°
2026-04-27 17:38 25.49584 55.71244 5089 ft 292 kts 97°
2026-04-27 17:38 25.49261 55.73485 4986 ft 295 kts 97°
2026-04-27 17:38 25.48926 55.75736 4999 ft 298 kts 101°
2026-04-27 17:39 25.48275 55.77907 4885 ft 296 kts 115°
2026-04-27 17:39 25.47178 55.79819 4292 ft 295 kts 131°
2026-04-27 17:39 25.45870 55.81573 3666 ft 295 kts 130°
2026-04-27 17:39 25.44578 55.83320 3160 ft 291 kts 130°
2026-04-27 17:40 25.43328 55.85025 3005 ft 285 kts 130°
2026-04-27 17:40 25.42134 55.86660 2993 ft 260 kts 130°
2026-04-27 17:40 25.41031 55.88173 3000 ft 246 kts 130°
2026-04-27 17:40 25.40037 55.89659 3001 ft 237 kts 118°
2026-04-27 17:41 25.39485 55.91344 3001 ft 232 kts 97°
2026-04-27 17:41 25.39417 55.93115 2945 ft 231 kts 84°
2026-04-27 17:41 25.39552 55.94861 2768 ft 226 kts 80°
2026-04-27 17:41 25.39779 55.96565 2547 ft 222 kts 77°
2026-04-27 17:42 25.40060 55.98229 2401 ft 220 kts 73°
2026-04-27 17:42 25.40647 55.99729 2353 ft 209 kts 40°
2026-04-27 17:42 25.41825 56.00534 2404 ft 195 kts 359°
2026-04-27 17:42 25.43133 56.00372 2377 ft 190 kts 334°
2026-04-27 17:43 25.44381 55.99882 2193 ft 190 kts 330°
2026-04-27 17:43 25.45584 55.99230 2068 ft 194 kts 328°
2026-04-27 17:43 25.46735 55.98599 2015 ft 174 kts 331°
2026-04-27 17:43 25.47777 55.98110 1976 ft 151 kts 336°
2026-04-27 17:44 25.48738 55.97754 1987 ft 147 kts 339°
2026-04-27 17:44 25.49719 55.97465 1948 ft 145 kts 343°
2026-04-27 17:44 25.50693 55.97205 1849 ft 142 kts 336°
2026-04-27 17:44 25.51621 55.96834 1707 ft 142 kts 336°
2026-04-27 17:45 25.52580 55.96536 1491 ft 144 kts 343°
2026-04-27 17:45 25.53560 55.96277 1340 ft 145 kts 345°
2026-04-27 17:45 25.54525 55.95969 1180 ft 144 kts 341°
2026-04-27 17:45 25.55493 55.95643 1013 ft 146 kts 342°
2026-04-27 17:46 25.56464 55.95342 787 ft 145 kts 344°
2026-04-27 17:46 25.57437 55.95069 610 ft 143 kts 340°
2026-04-27 17:46 25.58396 55.94779 409 ft 143 kts 339°
2026-04-27 17:46 25.59343 55.94477 202 ft 143 kts 342°
2026-04-27 17:47 25.60302 55.94198 104 ft 135 kts 341°
2026-04-27 17:47 25.60855 55.94027 87 ft 100 kts 345°
2026-04-27 17:47 25.61343 55.93886 82 ft 29 kts 348°
2026-04-27 17:47 25.61459 55.93982 78 ft 20 kts 72°
2026-04-27 17:48 25.61510 55.94091 75 ft 14 kts 19°
2026-04-27 17:48 25.61612 55.94084 68 ft 15 kts 347°
2026-04-27 17:48 25.61679 55.94108 77 ft 10 kts 39°
2026-04-27 17:48 25.61692 55.94137 74 ft 0 kts 80°